Flag for Canada Weather past 2 weeks in Belleville, Ontario, Canada

Now
64 °F

Light rain. Fog.


Feels Like: 64 °F
Forecast: 52 / 69 °F
Wind: 7 mph from South

Location: Trenton

Current Time: Sep 21, 2014 at 10:53:42 AM

Latest Report: Sep 21, 2014 at 10:00 AM


Visibility: 6 mi

Pressure: 29.60 "Hg

Humidity: 100%

Dew point: 64 °F

Location of BellevilleLocation

Historic Weather in Belleville — Graph

°F

Belleville temperature yesterday

Maximum temperature yesterday: 73 °F (at 3:00 PM)
Minimum temperature yesterday: 45 °F (at 1:00 AM)
Average temperature yesterday: 63 °F

Past Weeks' High & Low Weather Summary

 TemperatureHumidityPressure
High73 °F (Sep 6, 3:00 PM)100% (Sep 8, 1:00 AM)30.40 "Hg (Sep 8, 1:00 AM)
Low34 °F (Sep 19, 5:00 AM)43% (Sep 16, 4:00 PM)29.53 "Hg (Sep 11, 5:00 AM)
Average58 °F78%30.09 "Hg
* Reported Sep 6 10:00 AM — Sep 21 10:00 AM, Belleville, Weather by CustomWeather, © 2014

Note: Actual official high and low records may vary slightly from our data, if they occured in-between our weather recording intervals... More about our weather records

Advertising

Belleville weather history for previous 24 hours

 ConditionsComfort  
Time TempWeatherWind HumidityBarometerVisibility
10:00 AM
Sep 21
64 °FLight rain. Fog.7 mph100%29.60 "Hg6 mi
9:00 AM64 °FLight rain. Fog.3 mph100%29.64 "Hg3 mi
8:00 AM64 °FPartly sunny.3 mph100%29.65 "Hg8 mi
7:00 AM64 °FOvercast.10 mph94%29.68 "Hg8 mi
6:00 AM64 °FMostly cloudy.8 mph94%29.68 "Hg8 mi
5:00 AM66 °FMostly cloudy.7 mph88%29.69 "Hg12 mi
4:00 AM66 °FSprinkles. Overcast.12 mph88%29.70 "Hg8 mi
3:00 AM70 °FMostly cloudy.15 mph73%29.70 "Hg15 mi
2:00 AM68 °FPassing clouds.15 mph78%29.71 "Hg15 mi
1:00 AM68 °FPassing clouds.12 mph78%29.73 "Hg15 mi
12:00 AM70 °FSprinkles. Overcast.10 mph78%29.76 "Hg8 mi
11:00 PM
Sep 20
70 °FSprinkles. Overcast.9 mph73%29.79 "Hg7 mi
10:00 PM66 °FSprinkles. Overcast.3 mph83%29.81 "Hg12 mi
9:00 PM68 °FPassing clouds.2 mph73%29.82 "Hg15 mi
8:00 PM68 °FPartly sunny.3 mph73%29.83 "Hg15 mi
7:00 PM68 °FBroken clouds.3 mph78%29.85 "Hg15 mi
6:00 PM70 °FBroken clouds.No wind73%29.86 "Hg15 mi
5:00 PM72 °FPartly sunny.9 mph69%29.88 "Hg15 mi
4:00 PM72 °FBroken clouds.10 mph65%29.89 "Hg15 mi
3:00 PM73 °FScattered clouds.13 mph65%29.89 "Hg15 mi
2:00 PM72 °FScattered clouds.13 mph69%29.90 "Hg15 mi
1:00 PM72 °FPartly sunny.14 mph69%29.94 "Hg15 mi
Weather by CustomWeather, © 2014

See weather overviewHow to use our weather pages